Flag for U.S.A. Weather past 2 weeks in Freehold, New Jersey, U.S.A.

Now
68 °F

Clear.


Feels Like: 68 °F
Forecast: 53 / 69 °F
Wind: 6 mph from Southwest

Location: Belmar-Farmdale

Current Time: Sep 21, 2014 at 10:11:55 PM

Latest Report: Sep 21, 2014 at 9:55 PM


Visibility: 7 mi

Pressure: 29.65 "Hg

Humidity: 88%

Dew point: 64 °F

Location of FreeholdLocation

Historic Weather in Freehold — Graph

°F

Freehold temperature yesterday

Maximum temperature yesterday: 73 °F (at 2:35 PM)
Minimum temperature yesterday: 57 °F (at 4:55 AM)
Average temperature yesterday: 66 °F

Past Weeks' High & Low Weather Summary

 TemperatureHumidityPressure
High84 °F (Sep 11, 4:35 PM)88% (Sep 11, 5:15 AM)30.37 "Hg (Sep 11, 5:15 AM)
Low48 °F (Sep 15, 5:15 AM)38% (Sep 18, 12:55 PM)29.63 "Hg (Sep 21, 6:15 PM)
Average65 °F69%30.10 "Hg
* Reported Sep 6 8:15 PM — Sep 21 8:35 PM, Freehold, Weather by CustomWeather, © 2014

Note: Actual official high and low records may vary slightly from our data, if they occured in-between our weather recording intervals... More about our weather records

Advertising

Freehold weather history for previous 24 hours

 ConditionsComfort  
Time TempWeatherWind HumidityBarometerVisibility
8:35 PM
Sep 21
70 °FPassing clouds.3 mph83%29.64 "Hg7 mi
8:15 PM70 °FPassing clouds.5 mph83%29.64 "Hg7 mi
7:55 PM70 °FClear.3 mph83%29.64 "Hg7 mi
7:35 PM70 °FSunny.5 mph83%29.64 "Hg10 mi
7:15 PM72 °FSunny.No wind78%29.64 "Hg9 mi
6:55 PM72 °FSunny.No wind83%29.63 "Hg10 mi
6:35 PM72 °FSunny.No wind78%29.63 "Hg10 mi
6:15 PM72 °FSunny.3 mph83%29.63 "Hg10 mi
5:55 PM73 °FSunny.5 mph78%29.64 "Hg10 mi
5:35 PM73 °FSunny.No wind78%29.64 "Hg10 mi
5:15 PM73 °FPassing clouds.No wind78%29.65 "Hg10 mi
4:35 PM73 °FOvercast.3 mph78%29.67 "Hg10 mi
4:15 PM73 °FPartly sunny.5 mph78%29.67 "Hg10 mi
3:55 PM72 °FBroken clouds.5 mph83%29.68 "Hg10 mi
3:35 PM72 °FMostly cloudy.3 mph83%29.70 "Hg8 mi
3:15 PM72 °FMostly cloudy.8 mph83%29.71 "Hg8 mi
2:55 PM73 °FCloudy.8 mph78%29.72 "Hg10 mi
2:35 PM73 °FOvercast.3 mph78%29.73 "Hg10 mi
2:15 PM73 °FMore clouds than sun.No wind74%29.74 "Hg10 mi
1:55 PM72 °FOvercast.3 mph83%29.74 "Hg10 mi
1:35 PM72 °FMostly cloudy.No wind78%29.76 "Hg10 mi
1:15 PM72 °FOvercast.3 mph83%29.77 "Hg10 mi
12:55 PM72 °FPartly sunny.No wind78%29.79 "Hg10 mi
12:35 PM72 °FPartly sunny.No wind83%29.79 "Hg10 mi
12:15 PM72 °FOvercast.No wind83%29.80 "Hg10 mi
11:55 AM70 °FLow clouds.No wind88%29.81 "Hg10 mi
11:35 AM70 °FLow clouds.5 mph88%29.82 "Hg10 mi
11:15 AM70 °FLow clouds.No wind88%29.84 "Hg10 mi
10:55 AM70 °FLow clouds.No wind88%29.84 "Hg5 mi
10:15 AM70 °FLow clouds.6 mph83%29.86 "Hg1 mi
9:55 AM70 °FLow clouds.5 mph83%29.87 "Hg2 mi
9:35 AM70 °FLow clouds.6 mph83%29.87 "Hg4 mi
9:15 AM68 °FLow clouds.No wind88%29.87 "Hg1 mi
8:55 AM66 °FLow clouds.No wind88%29.89 "Hg1 mi
8:35 AM66 °FLow clouds.5 mph88%29.90 "Hg0 mi
7:55 AM66 °FLow clouds.5 mph88%29.90 "Hg0 mi
7:35 AM66 °FLow clouds.3 mph88%29.90 "Hg0 mi
7:15 AM66 °FLow clouds.No wind88%29.90 "Hg0 mi
6:55 AM66 °FLow clouds.3 mph88%29.90 "Hg0 mi
6:35 AM66 °FLow clouds.6 mph88%29.91 "Hg0 mi
6:15 AM66 °FLow clouds.3 mph88%29.91 "Hg1 mi
5:35 AM66 °FLow clouds.3 mph88%29.93 "Hg2 mi
5:15 AM66 °FLow clouds.3 mph88%29.93 "Hg1 mi
4:55 AM66 °FLow clouds.No wind88%29.93 "Hg3 mi
4:35 AM66 °FLow clouds.No wind88%29.94 "Hg3 mi
4:15 AM66 °FLow clouds.6 mph88%29.95 "Hg2 mi
3:55 AM66 °FLow clouds.6 mph88%29.96 "Hg5 mi
3:35 AM66 °FLow clouds.7 mph88%29.96 "Hg7 mi
3:15 AM68 °FLow clouds.8 mph83%29.97 "Hg3 mi
2:55 AM70 °FLow clouds.7 mph83%29.97 "Hg3 mi
2:35 AM70 °FLow clouds.3 mph83%29.98 "Hg4 mi
1:55 AM70 °FLow clouds.3 mph83%30.00 "Hg5 mi
1:35 AM70 °FLow clouds.No wind83%30.01 "Hg7 mi
1:15 AM70 °FMostly cloudy.No wind83%30.02 "Hg8 mi
12:55 AM70 °FMostly cloudy.6 mph83%30.02 "Hg10 mi
12:35 AM70 °FMostly cloudy.6 mph83%30.04 "Hg10 mi
12:15 AM70 °FMostly cloudy.6 mph83%30.04 "Hg8 mi
11:55 PM
Sep 20
68 °FMostly cloudy.5 mph83%30.05 "Hg5 mi
11:35 PM68 °FMostly cloudy.7 mph83%30.06 "Hg9 mi
11:15 PM70 °FMostly cloudy.5 mph73%30.06 "Hg10 mi
10:55 PM70 °FOvercast.No wind73%30.07 "Hg10 mi
10:35 PM70 °FOvercast.No wind73%30.08 "Hg10 mi
10:15 PM70 °FMostly cloudy.No wind73%30.09 "Hg10 mi
Weather by CustomWeather, © 2014

See weather overviewHow to use our weather pages